Retour au catalogue

SL-23 DEB

ActifMEO
NORAD 43381·DEBRIS·🇷🇺 Russia

Lancé Apr 27, 2008 depuis Baikonur Cosmodrome

Loading…

Prochains Passages (prochaines 24 heures)

TLE

FraisSource: Space-Track

Époque: Sep 10, 2026, 11:39 UTC

1 43381U 08020C   26253.48588273 -.00000084  00000-0  00000+0 0  9994
2 43381  60.0879  26.8961 0658027 207.1290 152.2577  1.67820328 78452

Suivez SL-23 DEB en temps réel avec AllMySat

Download on the App Store